GW5772 Weather Reports


Display with metric or nautical units.
time (UTC)temp
F
wind
direction
speed
MPH
gust
MPH
rain 1hr
in
rain 24hr
in
rain mn
in
humidity
%
barometer
mb
20260505041530 61 259 0.0 3.0 0.00 0.00 0.00 72 1010.1
20260505040016 62 196 0.0 3.0 0.00 0.00 0.00 71 1010.0
20260505034515 63 174 0.0 0.0 0.00 0.00 0.00 68 1009.8
20260505033003 64 196 0.0 4.0 0.00 0.00 0.00 67 1009.7
20260505031505 65 149 1.0 5.0 0.00 0.00 0.00 63 1009.5
20260505030011 66 313 1.0 2.0 0.00 0.00 0.00 61 1009.4
20260505024518 66 313 0.0 1.0 0.00 0.00 0.00 62 1009.4
20260505023018 65 313 0.0 1.0 0.00 0.00 0.00 62 1009.5
20260505021507 65 112 0.0 3.0 0.00 0.00 0.00 60 1009.6
20260505020020 67 56 0.0 1.0 0.00 0.00 0.00 60 1009.7
20260505014513 69 104 1.0 3.0 0.00 0.00 0.00 59 1009.7
20260505013020 71 109 0.0 2.0 0.00 0.00 0.00 56 1009.8
20260505011503 71 102 0.0 2.0 0.00 0.00 0.00 55 1009.8
20260505010007 70 98 0.0 3.0 0.00 0.00 0.00 59 1009.9
20260505004520 71 117 0.0 0.0 0.00 0.00 0.00 62 1009.9
20260505003021 71 105 0.0 3.0 0.00 0.00 0.00 61 1009.9
20260505001522 72 98 0.0 2.0 0.00 0.00 0.00 57 1010.1
20260505000010 72 94 1.0 2.0 0.00 0.00 0.00 55 1010.1
20260504234511 72 92 1.0 2.0 0.00 0.00 0.00 53 1010.2
20260504233022 72 172 0.0 3.0 0.00 0.00 0.00 54 1010.3
20260504231524 72 96 1.0 2.0 0.00 0.00 0.00 54 1010.4
20260504230022 71 96 2.0 3.0 0.00 0.00 0.00 55 1010.5
20260504224509 72 90 0.0 2.0 0.00 0.00 0.00 56 1010.7
20260504223014 72 90 2.0 4.0 0.00 0.00 0.00 53 1010.7
20260504221520 72 115 1.0 2.0 0.00 0.00 0.00 56 1010.8
20260504220024 72 84 1.0 4.0 0.00 0.00 0.00 57 1010.9
20260504214508 72 212 1.0 3.0 0.00 0.00 0.00 56 1011.0
20260504213031 71 96 1.0 4.0 0.00 0.00 0.00 56 1011.2
20260504211519 71 88 2.0 5.0 0.00 0.00 0.00 56 1011.3
20260504210027 71 74 2.0 4.0 0.00 0.00 0.00 57 1011.3
20260504204527 72 107 0.0 2.0 0.00 0.00 0.00 56 1011.4
20260504203024 72 291 2.0 3.0 0.00 0.00 0.00 55 1011.6
20260504201522 70 352 2.0 3.0 0.00 0.00 0.00 58 1011.6
20260504200022 69 244 1.0 2.0 0.00 0.00 0.00 62 1011.7
20260504194524 69 115 1.0 3.0 0.00 0.00 0.00 61 1011.7
20260504193028 69 100 2.0 2.0 0.00 0.00 0.00 61 1011.7
20260504191525 69 205 1.0 3.0 0.00 0.00 0.00 55 1011.7
20260504190016 69 350 2.0 4.0 0.00 0.00 0.00 56 1011.8
20260504184524 68 95 0.0 3.0 0.00 0.00 0.00 64 1011.9
20260504183028 67 259 2.0 3.0 0.00 0.00 0.00 60 1011.8
20260504181513 66 281 2.0 3.0 0.00 0.00 0.00 63 1011.9
20260504180018 64 281 2.0 7.0 0.00 0.00 0.00 64 1011.8
20260504174522 63 275 3.0 6.0 0.00 0.00 0.00 67 1011.8
20260504173013 62 280 1.0 7.0 0.00 0.00 0.00 71 1011.8
20260504171517 62 270 3.0 7.0 0.00 0.00 0.00 72 1011.9
20260504081519 50 310 0.0 0.0 0.00 0.00 0.00 89 1010.8